Date String (YYYY-MM-DD hh:mm:ss) UTC,Instrument flags,Ambient pressure (hPa),Sample flow (lpm),Bypass flow (lpm),Sample temperature (°C),Ambient temperature (°C),ASC tube jacket temperature (°C),LED temperature (°C),Box temperature (°C),Sample RH (%),Span deviation,Mass concentration (μg/m³),Mass concentration (μg/m³),Mass concentration (μg/m³)
DateTimeUTC,F1_M11,P_M11,Q1_M11,Q2_M11,T1_M11,T2_M11,T3_M11,T4_M11,T5_M11,U1_M11,ZSPAN_M11,X0_M11,X2_M11,X1_M11
2022-04-20 04:00:00,,0811.9,4.99,0.00,29.5,28.7,00.0,38.4,31.3,06.6,0000.0,0013.79,0003.68,0001.77
2022-04-20 04:01:00,,0811.9,5.02,0.00,29.5,28.7,00.0,38.4,31.3,06.7,0000.0,0013.46,0003.73,0001.77
2022-04-20 04:02:00,,0811.9,4.99,0.00,29.5,28.7,00.0,38.5,31.3,06.6,0000.0,0013.31,0003.74,0001.75
2022-04-20 04:03:00,,0811.9,5.01,0.00,29.6,28.7,00.0,38.5,31.3,06.6,0000.0,0012.55,0003.72,0001.73
2022-04-20 04:04:00,,0811.9,5.00,0.00,29.6,28.8,00.0,38.5,31.3,06.5,0000.0,0012.79,0003.71,0001.74
2022-04-20 04:05:00,,0811.9,5.00,0.00,29.6,28.8,00.0,38.5,31.4,06.4,0000.0,0013.17,0003.72,0001.74
2022-04-20 04:06:00,,0811.9,5.00,0.00,29.6,28.8,00.0,38.5,31.4,06.4,0000.0,0012.92,0003.69,0001.75
2022-04-20 04:07:00,,0811.9,4.99,0.00,29.6,28.8,00.0,38.5,31.4,06.6,0000.0,0012.76,0003.75,0001.76
2022-04-20 04:08:00,,0811.9,5.02,0.00,29.6,28.8,00.0,38.5,31.4,06.6,0000.0,0012.50,0003.72,0001.76
2022-04-20 04:09:00,,0811.9,4.99,0.00,29.7,28.8,00.0,38.5,31.4,06.5,0000.0,0012.19,0003.72,0001.76
2022-04-20 04:10:00,,0812.0,4.99,0.00,29.7,28.9,00.0,38.6,31.4,06.5,0000.0,0012.13,0003.69,0001.77
2022-04-20 04:11:00,,0811.9,5.02,0.00,29.7,28.9,00.0,38.6,31.5,06.5,0000.0,0011.52,0003.66,0001.76
2022-04-20 04:12:00,,0812.0,4.99,0.00,29.7,28.9,00.0,38.6,31.5,06.5,0000.0,0011.00,0003.62,0001.76
2022-04-20 04:13:00,,0811.9,5.00,0.00,29.7,28.9,00.0,38.6,31.5,06.5,0000.0,0010.90,0003.57,0001.76
2022-04-20 04:14:00,,0812.0,5.01,0.00,29.7,28.9,00.0,38.6,31.5,06.4,0000.0,0010.82,0003.55,0001.79
2022-04-20 04:15:00,,0811.9,4.99,0.00,29.7,28.9,00.0,38.6,31.5,06.4,0000.0,0010.07,0003.56,0001.78
2022-04-20 04:16:00,,0811.9,5.01,0.00,29.8,28.9,00.0,38.6,31.5,06.4,0000.0,0010.06,0003.61,0001.77
2022-04-20 04:17:00,,0811.9,4.99,0.00,29.8,28.9,00.0,38.6,31.5,06.4,0000.0,0010.39,0003.69,0001.79
2022-04-20 04:18:00,,0811.9,5.02,0.00,29.8,28.9,00.0,38.7,31.5,06.4,0000.0,0010.07,0003.67,0001.80
2022-04-20 04:19:00,,0811.9,4.99,0.00,29.8,29.0,00.0,38.7,31.6,06.4,0000.0,0010.08,0003.70,0001.82
2022-04-20 04:20:00,,0811.9,5.00,0.00,29.8,29.0,00.0,38.7,31.6,06.4,0000.0,0010.20,0003.75,0001.83
2022-04-20 04:21:00,,0811.9,5.02,0.00,29.8,29.0,00.0,38.7,31.6,06.4,0000.0,0010.37,0003.79,0001.83
2022-04-20 04:22:00,,0811.9,4.98,0.00,29.8,29.0,00.0,38.7,31.6,06.4,0000.0,0011.02,0003.83,0001.84
2022-04-20 04:23:00,,0811.9,5.01,0.00,29.9,29.1,00.0,38.7,31.7,06.4,0000.0,0010.82,0003.81,0001.85
2022-04-20 04:24:00,,0811.9,4.98,0.00,29.9,29.1,00.0,38.7,31.7,06.3,0000.0,0010.92,0003.86,0001.83
2022-04-20 04:25:00,,0811.9,4.99,0.00,29.9,29.1,00.0,38.8,31.7,06.3,0000.0,0010.88,0003.91,0001.82
2022-04-20 04:26:00,,0811.9,5.01,0.00,29.9,29.1,00.0,38.8,31.7,06.3,0000.0,0010.99,0003.96,0001.84
2022-04-20 04:27:00,,0811.9,4.99,0.00,29.9,29.1,00.0,38.8,31.7,06.3,0000.0,0011.21,0003.98,0001.85
2022-04-20 04:28:00,,0811.9,5.01,0.00,29.9,29.1,00.0,38.8,31.7,06.3,0000.0,0011.23,0003.94,0001.87
2022-04-20 04:29:00,,0811.9,5.01,0.00,29.9,29.1,00.0,38.8,31.7,06.3,0000.0,0012.46,0003.96,0001.89
2022-04-20 04:30:00,,0811.9,4.99,0.00,29.9,29.1,00.0,38.8,31.7,06.3,0000.0,0012.49,0003.97,0001.90
2022-04-20 04:31:00,,0811.9,5.00,0.00,29.9,29.1,00.0,38.8,31.7,06.3,0000.0,0012.04,0003.99,0001.90
2022-04-20 04:32:00,,0811.9,5.02,0.00,29.9,29.1,00.0,38.8,31.7,06.3,0000.0,0012.14,0003.96,0001.93
2022-04-20 04:33:00,,0811.9,4.98,0.00,29.9,28.6,00.0,38.8,31.6,06.3,0000.0,0011.75,0003.98,0001.95
2022-04-20 04:34:00,,0812.0,5.02,0.00,29.8,26.3,00.0,38.8,31.1,06.3,0000.0,0011.82,0003.99,0001.96
2022-04-20 04:35:00,,0811.9,4.99,0.00,29.6,25.6,00.0,38.8,30.9,06.4,0000.0,0012.09,0003.98,0001.99
2022-04-20 04:36:00,,0811.9,5.01,0.00,29.5,25.9,00.0,38.7,30.9,06.4,0000.0,0011.99,0003.90,0001.98
2022-04-20 04:37:00,,0811.9,4.99,0.00,29.5,26.3,00.0,38.6,31.0,06.5,0000.0,0012.11,0003.88,0001.96
2022-04-20 04:38:00,,0811.9,5.01,0.00,29.5,26.8,00.0,38.6,31.0,06.5,0000.0,0012.45,0003.88,0001.95
2022-04-20 04:39:00,,0811.9,5.00,0.00,29.4,27.1,00.0,38.5,31.1,06.5,0000.0,0011.94,0003.85,0001.95
2022-04-20 04:40:00,,0811.9,4.98,0.00,29.4,27.4,00.0,38.5,31.1,06.5,0000.0,0010.70,0003.86,0001.93
2022-04-20 04:41:00,,0811.9,5.01,0.00,29.4,27.6,00.0,38.5,31.1,06.6,0000.0,0010.85,0003.92,0001.94
2022-04-20 04:42:00,,0811.9,4.99,0.00,29.4,27.8,00.0,38.5,31.1,06.6,0000.0,0011.26,0003.86,0001.94
2022-04-20 04:43:00,,0811.9,5.01,0.00,29.4,28.0,00.0,38.5,31.1,06.6,0000.0,0011.39,0003.85,0001.94
2022-04-20 04:44:00,,0811.9,4.98,0.00,29.4,28.1,00.0,38.5,31.1,06.6,0000.0,0011.74,0003.91,0001.95
2022-04-20 04:45:00,,0811.9,5.02,0.00,29.4,28.2,00.0,38.5,31.1,06.6,0000.0,0011.73,0003.90,0001.94
2022-04-20 04:46:00,,0811.9,4.99,0.00,29.4,28.2,00.0,38.4,31.1,06.6,0000.0,0012.12,0003.91,0001.93
2022-04-20 04:47:00,,0811.9,4.99,0.00,29.4,28.3,00.0,38.4,31.1,06.6,0000.0,0012.51,0003.95,0001.94
2022-04-20 04:48:00,,0811.9,5.01,0.00,29.4,28.3,00.0,38.4,31.1,06.6,0000.0,0012.59,0003.93,0001.93
2022-04-20 04:49:00,,0812.0,4.99,0.00,29.4,28.4,00.0,38.4,31.1,06.6,0000.0,0012.38,0003.86,0001.94
2022-04-20 04:50:00,,0811.9,5.01,0.00,29.4,28.4,00.0,38.4,31.1,06.6,0000.0,0012.23,0003.84,0001.93
2022-04-20 04:51:00,,0812.0,5.00,0.00,29.4,28.4,00.0,38.4,31.1,06.6,0000.0,0012.11,0003.80,0001.93
2022-04-20 04:52:00,,0812.0,4.99,0.00,29.4,28.4,00.0,38.4,31.1,06.6,0000.0,0012.29,0003.76,0001.91
2022-04-20 04:53:00,,0812.0,5.01,0.00,29.4,28.5,00.0,38.4,31.1,06.6,0000.0,0011.89,0003.78,0001.91
2022-04-20 04:54:00,,0812.0,5.02,0.00,29.4,28.5,00.0,38.4,31.2,06.5,0000.0,0012.13,0003.76,0001.93
2022-04-20 04:55:00,,0812.0,4.99,0.00,29.4,28.5,00.0,38.4,31.1,06.5,0000.0,0011.44,0003.75,0001.91
2022-04-20 04:56:00,,0812.0,5.00,0.00,29.4,28.5,00.0,38.4,31.1,06.5,0000.0,0011.63,0003.73,0001.88
2022-04-20 04:57:00,,0812.0,5.02,0.00,29.4,28.5,00.0,38.4,31.1,06.5,0000.0,0011.66,0003.74,0001.89
2022-04-20 04:58:00,,0812.0,4.99,0.00,29.4,28.5,00.0,38.4,31.1,06.6,0000.0,0011.11,0003.74,0001.87
2022-04-20 04:59:00,,0812.0,5.02,0.00,29.4,28.5,00.0,38.4,31.1,06.5,0000.0,0012.21,0003.79,0001.88
